Data for 12/17/2017

Time Sea-Level Adjusted Pressure Absolute Pressure Temperature Relative Humidity Dew Point   
(mb) (inHg) (mb) (inHg) (C) (F) (%) (C) (F)
00:05 1019 30.09 848 25.04 -7.2 19.1 82 -9.8 14.4
00:10 1019 30.09 848 25.04 -7.1 19.1 80 -10 13.9
00:15 1019 30.09 848 25.04 -6.9 19.6 78 -10.2 13.7
00:20 1018 30.06 848 25.04 -7 19.4 78 -10.2 13.7
00:25 1018 30.06 848 25.04 -7 19.4 78 -10.3 13.5
00:30 1018 30.06 848 25.04 -7.1 19.2 77 -10.5 13
00:35 1018 30.06 848 25.04 -7 19.3 76 -10.6 13
00:40 1018 30.06 848 25.04 -7.2 19.1 78 -10.3 13.4
00:45 1018 30.06 847 25.01 -7.5 18.5 79 -10.6 12.9
00:50 1018 30.06 847 25.01 -7.7 18.2 77 -11 12.1
00:55 1018 30.06 847 25.01 -7.9 17.7 78 -11.1 12
01:00 1018 30.06 847 25.01 -8 17.6 79 -11 12.1
01:05 1018 30.06 847 25.01 -7.8 17.9 77 -11.2 11.8
01:10 1018 30.06 847 25.01 -7.5 18.5 75 -11.1 12
01:15 1018 30.06 847 25.01 -7.7 18.2 76 -11.2 11.8
01:20 1018 30.06 847 25.01 -8 17.6 78 -11.3 11.7
01:25 1018 30.06 847 25.01 -8.4 17 79 -11.3 11.6
01:30 1018 30.06 847 25.01 -8.5 16.7 81 -11.2 11.8
01:35 1018 30.06 847 25.01 -8.6 16.5 80 -11.4 11.4
01:40 1018 30.06 847 25.01 -8.9 15.9 81 -11.6 11.2
01:45 1018 30.06 847 25.01 -8.5 16.6 78 -11.7 11
01:50 1018 30.06 847 25.01 -8.3 17.1 78 -11.5 11.3
01:55 1018 30.06 847 25.01 -8.5 16.8 79 -11.6 11.2
02:00 1018 30.06 847 25.01 -8.5 16.8 77 -11.9 10.6
02:05 1018 30.06 847 25.01 -8.7 16.3 77 -12 10.3
02:10 1018 30.06 847 25.01 -8.9 15.9 78 -12.2 10.1
02:15 1018 30.06 847 25.01 -8.9 16.1 78 -12 10.4
02:20 1018 30.06 847 25.01 -7.7 18.1 73 -11.7 10.9
02:25 1018 30.06 847 25.01 -7.5 18.5 72 -11.7 10.9
02:30 1018 30.06 847 25.01 -8.1 17.4 72 -12.3 9.8
02:35 1018 30.06 847 25.01 -9.2 15.5 74 -12.9 8.7
02:40 1018 30.06 847 25.01 -9.9 14.1 76 -13.3 8
02:45 1018 30.06 847 25.01 -10.5 13 80 -13.3 8
02:50 1018 30.06 848 25.04 -10.7 12.7 84 -12.9 8.7
02:55 1018 30.06 847 25.01 -10.7 12.7 83 -13 8.6
03:00 1018 30.06 847 25.01 -10.7 12.8 83 -13 8.6
03:05 1018 30.06 847 25.01 -10.5 13.1 82 -13 8.5
03:10 1018 30.06 847 25.01 -10.1 13.8 82 -12.7 9.2
03:15 1018 30.06 847 25.01 -10 14 80 -12.8 8.9
03:20 1018 30.06 847 25.01 -9.7 14.5 77 -13.1 8.5
03:25 1018 30.06 847 25.01 -9.6 14.8 76 -13 8.6
03:30 1018 30.06 847 25.01 -9.5 15 75 -13 8.6
03:35 1018 30.06 847 25.01 -9.4 15 75 -13.1 8.3
03:40 1018 30.06 847 25.01 -9.3 15.3 72 -13.4 7.9
03:45 1018 30.06 847 25.01 -9.2 15.4 74 -13.1 8.5
03:50 1018 30.06 847 25.01 -9.3 15.3 73 -13.2 8.2
03:55 1018 30.06 847 25.01 -9.6 14.8 75 -13.3 8.1
04:00 1018 30.06 847 25.01 -9.7 14.6 74 -13.5 7.7
04:05 1018 30.06 847 25.01 -9.8 14.5 75 -13.4 7.9
04:10 1018 30.06 847 25.01 -9.8 14.5 77 -13 8.6
04:15 1018 30.06 847 25.01 -9.8 14.4 78 -12.9 8.8
04:20 1018 30.06 847 25.01 -9.7 14.5 78 -12.9 8.8
04:25 1017 30.03 847 25.01 -9.6 14.7 80 -12.5 9.6
04:30 1017 30.03 847 25.01 -9.1 15.6 78 -12.4 9.8
04:35 1017 30.03 847 25.01 -9.3 15.2 75 -12.9 8.8
04:40 1017 30.03 847 25.01 -9.2 15.5 76 -12.6 9.3
04:45 1017 30.03 847 25.01 -9.4 15.1 75 -13 8.6
04:50 1017 30.03 847 25.01 -9.6 14.7 77 -13 8.7
04:55 1017 30.03 847 25.01 -9.2 15.5 73 -13.1 8.4
05:00 1017 30.03 846 24.98 -8.8 16.2 72 -12.9 8.8
05:05 1017 30.03 846 24.98 -9.1 15.7 73 -13 8.6
05:10 1017 30.03 846 24.98 -9.6 14.8 74 -13.4 8
05:15 1017 30.03 847 25.01 -10.2 13.7 75 -13.9 7
05:20 1017 30.03 847 25.01 -10.6 12.9 73 -14.5 5.9
05:25 1017 30.03 847 25.01 -10.7 12.8 74 -14.4 6
05:30 1017 30.03 847 25.01 -10.4 13.2 74 -14.2 6.5
05:35 1017 30.03 847 25.01 -10.3 13.5 75 -13.9 6.9
05:40 1018 30.06 847 25.01 -10.6 12.8 74 -14.3 6.2
05:45 1018 30.06 847 25.01 -10.3 13.4 74 -14.1 6.6
05:50 1018 30.06 847 25.01 -9.9 14.3 72 -14 6.7
05:55 1018 30.06 847 25.01 -9.9 14.2 72 -14.1 6.6
06:00 1018 30.06 847 25.01 -10.3 13.4 73 -14.3 6.2
06:05 1018 30.06 847 25.01 -10.6 12.9 74 -14.4 6
06:10 1018 30.06 847 25.01 -10.8 12.6 74 -14.6 5.6
06:15 1018 30.06 847 25.01 -10.9 12.4 77 -14.2 6.4
06:20 1018 30.06 847 25.01 -10.5 13.1 76 -14 6.9
06:25 1018 30.06 847 25.01 -10.4 13.3 76 -13.8 7.2
06:30 1018 30.06 847 25.01 -10.5 13 76 -14.1 6.7
06:35 1018 30.06 847 25.01 -10.4 13.4 79 -13.4 8
06:40 1018 30.06 847 25.01 -10.5 13.1 79 -13.4 7.8
06:45 1018 30.06 847 25.01 -10.6 13 78 -13.7 7.4
06:50 1018 30.06 847 25.01 -10.3 13.4 78 -13.4 7.8
06:55 1018 30.06 847 25.01 -10.3 13.6 74 -14 6.9
07:00 1018 30.06 847 25.01 -10 14 72 -14.1 6.7
07:05 1018 30.06 847 25.01 -9.7 14.6 71 -14 6.8
07:10 1018 30.06 847 25.01 -9.7 14.5 72 -13.9 6.9
07:15 1018 30.06 847 25.01 -9.9 14.1 72 -14 6.7
07:20 1018 30.06 847 25.01 -9.9 14.1 74 -13.7 7.3
07:25 1018 30.06 847 25.01 -9.9 14.3 72 -14.1 6.6
07:30 1018 30.06 847 25.01 -10.3 13.5 73 -14.2 6.4
07:35 1018 30.06 847 25.01 -10.4 13.2 74 -14.3 6.3
07:40 1018 30.06 847 25.01 -10.5 13.1 75 -14.2 6.5
07:45 1018 30.06 847 25.01 -10.5 13.2 75 -14 6.8
07:50 1018 30.06 847 25.01 -10.5 13.1 75 -14.1 6.6
07:55 1018 30.06 847 25.01 -10.5 13.1 77 -13.8 7.2
08:00 1018 30.06 847 25.01 -10.1 13.8 77 -13.4 7.9
08:05 1018 30.06 847 25.01 -9.7 14.5 77 -13.1 8.5
08:10 1018 30.06 847 25.01 -9.4 15 76 -12.8 8.9
08:15 1018 30.06 847 25.01 -9.3 15.3 76 -12.8 9
08:20 1018 30.06 847 25.01 -9.1 15.7 78 -12.2 10
08:25 1018 30.06 847 25.01 -8.8 16.2 75 -12.4 9.7
08:30 1018 30.06 847 25.01 -8.9 15.9 78 -12.2 10.1
08:35 1018 30.06 847 25.01 -8.6 16.4 77 -12 10.4
08:40 1018 30.06 847 25.01 -8.3 17 77 -11.7 10.9
08:45 1018 30.06 847 25.01 -7.9 17.7 74 -11.8 10.8
08:50 1018 30.06 847 25.01 -7.7 18.1 73 -11.8 10.8
08:55 1018 30.06 847 25.01 -7.4 18.6 73 -11.5 11.4
09:00 1018 30.06 847 25.01 -7.1 19.2 74 -11 12.1
09:05 1018 30.06 847 25.01 -7 19.4 70 -11.7 11
09:10 1018 30.06 847 25.01 -6.8 19.8 70 -11.5 11.4
09:15 1018 30.06 847 25.01 -6.8 19.9 71 -11.1 12
09:20 1018 30.06 847 25.01 -6.8 19.8 68 -11.7 11
09:25 1018 30.06 847 25.01 -6.7 19.9 69 -11.5 11.3
09:30 1018 30.06 847 25.01 -6.4 20.5 70 -11 12.3
09:35 1017 30.03 847 25.01 -6.1 21 69 -11 12.3
09:40 1017 30.03 847 25.01 -6 21.2 69 -10.9 12.4
09:45 1017 30.03 847 25.01 -5.7 21.7 67 -10.9 12.4
09:50 1018 30.06 847 25.01 -5.4 22.3 67 -10.7 12.8
09:55 1018 30.06 847 25.01 -5.2 22.7 66 -10.6 13
10:00 1018 30.06 847 25.01 -5.3 22.5 67 -10.5 13.1
10:05 1018 30.06 847 25.01 -5.5 22.1 66 -10.9 12.4
10:10 1018 30.06 847 25.01 -5.4 22.3 65 -10.9 12.3
10:15 1018 30.06 847 25.01 -5.2 22.6 64 -11 12.2
10:20 1018 30.06 847 25.01 -5.2 22.6 64 -11 12.3
10:25 1018 30.06 847 25.01 -5.4 22.3 64 -11.2 11.8
10:30 1018 30.06 847 25.01 -5.6 22 67 -10.8 12.5
10:35 1018 30.06 847 25.01 -5.8 21.5 65 -11.4 11.5
10:40 1018 30.06 847 25.01 -5.8 21.6 64 -11.4 11.4
10:45 1018 30.06 847 25.01 -5.5 22.2 64 -11.3 11.7
10:50 1018 30.06 847 25.01 -5.3 22.4 64 -11.1 12
10:55 1018 30.06 847 25.01 -5.2 22.7 61 -11.6 11.1
11:00 1018 30.06 847 25.01 -5 23 59 -11.8 10.8
11:05 1018 30.06 847 25.01 -4.8 23.3 60 -11.5 11.2
11:10 1018 30.06 847 25.01 -4.8 23.3 58 -11.8 10.8
11:15 1018 30.06 847 25.01 -5.2 22.6 59 -12.1 10.2
11:20 1018 30.06 847 25.01 -5.6 22 63 -11.6 11.1
11:25 1018 30.06 847 25.01 -5.6 22 65 -11.1 12
11:30 1018 30.06 847 25.01 -5.4 22.3 67 -10.7 12.8
11:35 1018 30.06 847 25.01 -5.1 22.7 63 -11.2 11.8
11:40 1018 30.06 847 25.01 -5.4 22.2 61 -11.8 10.8
11:45 1018 30.06 847 25.01 -5.3 22.6 62 -11.4 11.5
11:50 1017 30.03 847 25.01 -4.5 24 57 -11.8 10.7
11:55 1017 30.03 847 25.01 -4.2 24.5 59 -11 12.2
12:00 1017 30.03 847 25.01 -4.2 24.4 59 -11 12.2
12:05 1017 30.03 847 25.01 -4.2 24.4 59 -11 12.2
12:10 1017 30.03 847 25.01 -3.9 24.9 59 -10.9 12.4
12:15 1017 30.03 847 25.01 -4 24.8 58 -11.2 11.9
12:20 1018 30.06 847 25.01 -3.7 25.4 56 -11.2 11.8
12:25 1017 30.03 847 25.01 -3.4 25.8 56 -11 12.2
12:30 1017 30.03 847 25.01 -3 26.5 52 -11.7 11
12:35 1017 30.03 847 25.01 -3 26.6 55 -10.7 12.7
12:40 1017 30.03 846 24.98 -3.3 26 55 -11.1 12
12:45 1017 30.03 846 24.98 -3.7 25.4 58 -10.8 12.5
12:50 1017 30.03 846 24.98 -3.7 25.4 59 -10.6 12.8
12:55 1017 30.03 846 24.98 -2.9 26.7 55 -10.8 12.6
13:00 1017 30.03 846 24.98 -2.6 27.2 54 -10.6 12.8
13:05 1017 30.03 846 24.98 -2.6 27.4 57 -10.1 13.9
13:10 1017 30.03 846 24.98 -2.4 27.6 56 -10.1 13.8
13:15 1017 30.03 846 24.98 -2.3 27.8 54 -10.4 13.4
13:20 1017 30.03 846 24.98 -2.4 27.7 56 -10 14
13:25 1017 30.03 846 24.98 -2.4 27.7 56 -10.1 13.8
13:30 1017 30.03 846 24.98 -2.5 27.5 57 -9.9 14.1
13:35 1017 30.03 846 24.98 -2.5 27.5 59 -9.4 15
13:40 1017 30.03 846 24.98 -2.7 27.1 61 -9.3 15.3
13:45 1017 30.03 846 24.98 -3.5 25.7 60 -10.2 13.7
13:50 1017 30.03 846 24.98 -3.9 24.9 61 -10.5 13.2
13:55 1017 30.03 846 24.98 -3.3 26.1 60 -10 14.1
14:00 1016 30 846 24.98 -2.7 27.2 58 -9.8 14.4
14:05 1016 30 846 24.98 -3 26.6 61 -9.6 14.8
14:10 1016 30 846 24.98 -3 26.6 61 -9.6 14.8
14:15 1016 30 846 24.98 -2.8 27 60 -9.6 14.7
14:20 1016 30 846 24.98 -2.7 27.2 56 -10.3 13.5
14:25 1016 30 846 24.98 -2.2 28 58 -9.4 15.2
14:30 1016 30 846 24.98 -2.3 27.8 58 -9.5 14.9
14:35 1016 30 845 24.95 -2.3 27.9 57 -9.7 14.6
14:40 1016 30 845 24.95 -2.7 27.2 59 -9.6 14.7
14:45 1016 30 846 24.98 -2.5 27.5 56 -10.1 13.9
14:50 1016 30 846 24.98 -2.4 27.7 59 -9.3 15.3
14:55 1016 30 846 24.98 -2.5 27.4 65 -8.3 17.1
15:00 1016 30 846 24.98 -2.4 27.6 61 -9 15.8
15:05 1016 30 846 24.98 -2.2 28 61 -8.8 16.1
15:10 1016 30 846 24.98 -2.2 28 61 -8.7 16.4
15:15 1017 30.03 846 24.98 -2.3 27.8 63 -8.5 16.8
15:20 1016 30 846 24.98 -2.8 27 63 -8.8 16.1
15:25 1017 30.03 846 24.98 -3 26.6 63 -9.1 15.6
15:30 1016 30 846 24.98 -2.8 27 63 -8.9 16
15:35 1016 30 846 24.98 -2.7 27.2 62 -9 15.7
15:40 1016 30 846 24.98 -2.7 27.1 62 -9.1 15.6
15:45 1016 30 846 24.98 -2.7 27.2 61 -9.2 15.4
15:50 1016 30 846 24.98 -2.7 27.1 62 -9 15.9
15:55 1016 30 846 24.98 -2.6 27.3 62 -8.9 16
16:00 1016 30 846 24.98 -2.7 27.2 62 -8.9 16
16:05 1016 30 846 24.98 -2.8 26.9 62 -9.1 15.6
16:10 1016 30 845 24.95 -2.8 26.9 62 -9.2 15.4
16:15 1016 30 845 24.95 -2.8 27 61 -9.2 15.5
16:20 1016 30 846 24.98 -2.7 27.2 63 -8.7 16.4
16:25 1016 30 846 24.98 -2.8 27 64 -8.6 16.5
16:30 1016 30 846 24.98 -2.9 26.8 67 -8.3 17.1
16:35 1016 30 846 24.98 -3 26.6 66 -8.5 16.7
16:40 1017 30.03 846 24.98 -3 26.5 69 -7.9 17.7
16:45 1017 30.03 846 24.98 -3.1 26.4 70 -7.8 18
16:50 1017 30.03 846 24.98 -3.1 26.4 70 -7.8 18
16:55 1017 30.03 846 24.98 -3.3 26.1 68 -8.3 17.1
17:00 1016 30 846 24.98 -3.3 26.1 68 -8.3 17
17:05 1016 30 846 24.98 -3.3 26.1 66 -8.8 16.2
17:10 1016 30 846 24.98 -3.2 26.2 67 -8.6 16.6
17:15 1016 30 846 24.98 -3.2 26.2 67 -8.5 16.6
17:20 1016 30 846 24.98 -3.4 25.9 69 -8.4 16.9
17:25 1016 30 846 24.98 -3.4 25.8 69 -8.3 17.1
17:30 1017 30.03 846 24.98 -3.3 26 73 -7.4 18.6
17:35 1017 30.03 846 24.98 -3.6 25.5 77 -7.1 19.2
17:40 1017 30.03 846 24.98 -3.8 25.2 77 -7.3 18.9
17:45 1016 30 846 24.98 -3.9 24.9 77 -7.4 18.8
17:50 1016 30 846 24.98 -4.1 24.6 78 -7.4 18.7
17:55 1016 30 846 24.98 -4.1 24.6 75 -7.8 17.9
18:00 1017 30.03 846 24.98 -4.3 24.3 72 -8.6 16.5
18:05 1017 30.03 846 24.98 -4.5 23.8 72 -8.9 16
18:10 1017 30.03 846 24.98 -4.8 23.4 71 -9.2 15.4
18:15 1017 30.03 846 24.98 -4.8 23.3 71 -9.3 15.3
18:20 1017 30.03 846 24.98 -4.7 23.6 70 -9.3 15.2
18:25 1017 30.03 846 24.98 -4.5 23.9 71 -9 15.8
18:30 1017 30.03 846 24.98 -4.3 24.3 70 -8.9 15.9
18:35 1017 30.03 846 24.98 -3.9 25 71 -8.5 16.7
18:40 1016 30 846 24.98 -4.1 24.7 71 -8.6 16.6
18:45 1016 30 846 24.98 -4 24.8 73 -8.2 17.3
18:50 1017 30.03 846 24.98 -3.9 25 74 -7.9 17.8
18:55 1017 30.03 846 24.98 -3.9 24.9 71 -8.4 16.8
19:00 1017 30.03 846 24.98 -3.6 25.6 65 -9.2 15.5
19:05 1017 30.03 846 24.98 -3.1 26.5 67 -8.4 16.8
19:10 1017 30.03 846 24.98 -3.2 26.3 70 -7.8 17.9
19:15 1017 30.03 846 24.98 -3.3 26.1 71 -7.8 17.9
19:20 1017 30.03 846 24.98 -3.2 26.3 73 -7.3 18.8
19:25 1017 30.03 846 24.98 -3.3 26.1 74 -7.3 18.9
19:30 1017 30.03 846 24.98 -3.2 26.2 72 -7.5 18.4
19:35 1017 30.03 846 24.98 -3 26.6 74 -7.1 19.2
19:40 1017 30.03 846 24.98 -3.1 26.5 75 -6.9 19.5
19:45 1017 30.03 846 24.98 -3.2 26.2 75 -7 19.3
19:50 1017 30.03 846 24.98 -3.7 25.3 78 -7.1 19.3
19:55 1017 30.03 846 24.98 -3.9 25 78 -7.2 19
20:00 1017 30.03 846 24.98 -3.7 25.4 76 -7.3 18.9
20:05 1017 30.03 846 24.98 -3.6 25.5 77 -7.1 19.2
20:10 1017 30.03 846 24.98 -3.8 25.1 79 -7 19.4
20:15 1017 30.03 846 24.98 -3.9 24.9 81 -6.7 19.9
20:20 1017 30.03 846 24.98 -4 24.9 79 -7.1 19.2
20:25 1017 30.03 846 24.98 -3.7 25.3 75 -7.5 18.5
20:30 1017 30.03 846 24.98 -3.5 25.8 62 -9.8 14.4
20:35 1017 30.03 846 24.98 -3 26.6 61 -9.5 15
20:40 1017 30.03 846 24.98 -2.8 26.9 67 -8.2 17.3
20:45 1017 30.03 846 24.98 -3 26.6 61 -9.5 14.9
20:50 1017 30.03 846 24.98 -2.9 26.8 58 -10 14.1
20:55 1017 30.03 846 24.98 -2.9 26.8 59 -9.9 14.3
21:00 1016 30 846 24.98 -2.8 26.9 59 -9.8 14.4
21:05 1016 30 846 24.98 -2.7 27.1 61 -9.2 15.4
21:10 1016 30 845 24.95 -2.8 27 58 -9.8 14.3
21:15 1016 30 845 24.95 -2.6 27.2 57 -10.1 13.9
21:20 1016 30 845 24.95 -2.6 27.3 58 -9.7 14.5
21:25 1016 30 845 24.95 -2.7 27.2 59 -9.6 14.7
21:30 1016 30 845 24.95 -2.9 26.9 61 -9.3 15.3
21:35 1016 30 845 24.95 -3 26.6 64 -8.9 16
21:40 1016 30 845 24.95 -3.1 26.5 69 -8 17.7
21:45 1016 30 845 24.95 -3.3 26.1 73 -7.5 18.6
21:50 1016 30 845 24.95 -3.5 25.6 75 -7.3 18.9
21:55 1015 29.97 845 24.95 -3.5 25.7 74 -7.4 18.6
22:00 1015 29.97 845 24.95 -3.6 25.5 76 -7.3 18.9
22:05 1015 29.97 844 24.92 -3.7 25.3 77 -7.2 19.1
22:10 1015 29.97 845 24.95 -3.7 25.3 77 -7.2 19.1
22:15 1015 29.97 845 24.95 -3.8 25.2 75 -7.5 18.4
22:20 1016 30 845 24.95 -3.7 25.3 74 -7.7 18.2
22:25 1016 30 845 24.95 -3.6 25.5 71 -8.1 17.4
22:30 1016 30 845 24.95 -3.4 25.9 68 -8.5 16.7
22:35 1016 30 845 24.95 -3.3 26.1 71 -7.9 17.8
22:40 1016 30 845 24.95 -3.4 25.9 73 -7.6 18.3
22:45 1016 30 845 24.95 -3.5 25.8 73 -7.6 18.3
22:50 1016 30 845 24.95 -3.6 25.4 75 -7.4 18.7
22:55 1016 30 845 24.95 -3.7 25.3 71 -8.3 17.1
23:00 1016 30 845 24.95 -3.5 25.7 71 -8 17.6
23:05 1016 30 845 24.95 -3.2 26.3 69 -8.1 17.5
23:10 1016 30 845 24.95 -2.9 26.7 69 -7.8 17.9
23:15 1016 30 845 24.95 -2.8 26.9 67 -8.1 17.4
23:20 1015 29.97 845 24.95 -2.4 27.6 68 -7.6 18.4
23:25 1016 30 845 24.95 -2.4 27.6 65 -8.2 17.2
23:30 1016 30 845 24.95 -2.1 28.2 66 -7.6 18.4
23:35 1015 29.97 845 24.95 -2.1 28.2 67 -7.5 18.5
23:40 1015 29.97 845 24.95 -2.2 28 71 -6.8 19.7
23:45 1015 29.97 844 24.92 -2.5 27.5 72 -6.9 19.6
23:50 1015 29.97 844 24.92 -2.4 27.6 66 -7.9 17.9
23:55 1015 29.97 844 24.92 -1.9 28.6 65 -7.7 18.1
24:00 1015 29.97 844 24.92 -1.8 28.8 65 -7.6 18.4